TimeEDT,TemperatureF,Dew PointF,Humidity,Sea Level PressureIn,VisibilityMPH,Wind Direction,Wind SpeedMPH,Gust SpeedMPH,PrecipitationIn,Events,Conditions,WindDirDegrees,DateUTC
12:19 AM,62.6,57.2,82,29.25,4.0,ESE,11.5,26.5,0.02,Rain,Light Rain,120,2012-10-30 04:19:00
12:34 AM,60.8,57.2,88,29.26,3.0,ESE,17.3,31.1,0.09,Rain,Heavy Rain,120,2012-10-30 04:34:00
12:52 AM,61.0,55.9,83,29.27,10.0,SE,9.2,18.4,0.12,,Mostly Cloudy,130,2012-10-30 04:52:00
1:52 AM,61.0,55.9,83,29.29,10.0,SE,8.1,18.4,0.00,,Mostly Cloudy,130,2012-10-30 05:52:00
2:52 AM,60.1,55.9,86,29.31,10.0,ESE,10.4,-,0.02,Rain,Light Rain,120,2012-10-30 06:52:00
3:52 AM,60.1,55.0,83,29.31,10.0,ESE,13.8,25.3,0.00,,Mostly Cloudy,110,2012-10-30 07:52:00
4:52 AM,60.1,54.0,80,29.34,10.0,SE,10.4,19.6,0.00,,Overcast,140,2012-10-30 08:52:00
5:52 AM,57.9,55.0,90,29.38,8.0,SSE,6.9,-,0.07,Rain,Light Rain,150,2012-10-30 09:52:00
6:25 AM,57.2,53.6,88,29.38,10.0,ESE,9.2,-,0.00,,Overcast,120,2012-10-30 10:25:00
6:52 AM,59.0,54.0,83,29.39,10.0,ESE,11.5,-,0.00,,Overcast,110,2012-10-30 10:52:00
7:48 AM,57.2,55.4,94,29.43,10.0,ESE,9.2,-,0.05,Rain,Light Rain,120,2012-10-30 11:48:00
7:52 AM,57.9,55.0,90,29.43,10.0,ESE,11.5,17.3,0.05,Rain,Light Rain,120,2012-10-30 11:52:00
8:03 AM,57.2,53.6,88,29.44,10.0,SE,12.7,23.0,0.00,,Overcast,130,2012-10-30 12:03:00
8:45 AM,57.2,55.4,94,29.47,10.0,South,5.8,-,0.01,Rain,Light Rain,170,2012-10-30 12:45:00
8:52 AM,57.9,54.0,87,29.47,10.0,ESE,11.5,18.4,0.01,,Overcast,110,2012-10-30 12:52:00
9:52 AM,59.0,54.0,83,29.49,10.0,SE,9.2,17.3,0.00,Rain,Light Rain,130,2012-10-30 13:52:00
10:52 AM,60.1,52.0,75,29.51,10.0,SE,9.2,17.3,0.00,,Mostly Cloudy,130,2012-10-30 14:52:00
11:52 AM,64.0,53.1,67,29.50,10.0,ESE,13.8,19.6,0.01,,Mostly Cloudy,110,2012-10-30 15:52:00
12:52 PM,64.0,52.0,65,29.50,10.0,SSE,13.8,20.7,N/A,,Overcast,160,2012-10-30 16:52:00
1:52 PM,64.0,50.0,60,29.51,10.0,SSE,13.8,23.0,N/A,,Mostly Cloudy,150,2012-10-30 17:52:00
3:52 PM,64.0,48.9,58,29.51,10.0,SE,10.4,17.3,N/A,,Mostly Cloudy,140,2012-10-30 19:52:00
4:52 PM,63.0,51.1,65,29.50,10.0,SE,10.4,-,N/A,,Overcast,130,2012-10-30 20:52:00
5:52 PM,60.1,53.1,78,29.52,10.0,SE,4.6,-,0.00,,Overcast,140,2012-10-30 21:52:00
8:52 PM,55.9,54.0,93,29.50,10.0,Calm,Calm,-,0.04,Rain,Light Rain,0,2012-10-31 00:52:00
9:52 PM,54.0,53.1,97,29.53,10.0,SE,4.6,-,0.00,,Partly Cloudy,130,2012-10-31 01:52:00
10:52 PM,53.1,52.0,96,29.52,10.0,East,3.5,-,N/A,,Overcast,90,2012-10-31 02:52:00
11:02 PM,53.6,51.8,94,29.52,10.0,East,4.6,-,N/A,,Overcast,100,2012-10-31 03:02:00
11:52 PM,54.0,52.0,93,29.52,10.0,Calm,Calm,-,N/A,,Overcast,0,2012-10-31 03:52:00